Tracking 18856 objects as of 12-Dec-2017
HD Live streaming from Space Station
objects crossing your sky now

COSMOS 2440

Track COSMOS 2440 now!
COSMOS 2440 is classified as:


NORAD ID: 33108
Int'l Code: 2008-033A
Perigee: 35,755.7 km
Apogee: 35,827.2 km
Inclination: 4.9 °
Period: 1,436.0 minutes
Semi major axis: 42162 km
RCS: 10.0237 m2 (large)
Launch date: June 27, 2008
Source: Commonwealth of Independent States (former USSR) (CIS)
Launch site: TYURATAM MISSILE AND SPACE COMPLEX (TTMTR)

Cosmos 2440 is a Russian military, geostationary, early warning craft.
aabbcc
Your satellite tracking list
Your tracking list is empty




NASA's NSSDC Master Catalog

Two Line Element Set (TLE):
1 33108U 08033A   17344.81406668 -.00000142 +00000-0 +00000-0 0  9995
2 33108 004.9418 056.7416 0008481 197.4694 197.5303 01.00279982034602
Source of the keplerian elements: AFSPC